AAL8500 KELP-KPHX

Flight info

Callsign AAL8500
Flight time 0h 50m
Altitude 34000
Route ATKNN5 ATKNN DRRVR PINNG1
Aircraft B738/M-SDE2E3FGHIRWXY/LB1

Departure

Time 2026-05-07 21:23
Airport El Paso International Airport (KELP)

Arrival

Time 2026-05-07 22:13
Airport Phoenix Sky Harbor International Airport (KPHX)
Time Latitude Longitude Altitude Speed Heading
2026-05-07 20:29 31.80040 -106.39510 3946 ft 0 kts 168°
2026-05-07 21:10 31.80049 -106.39513 3946 ft 4 kts 168°
2026-05-07 21:10 31.80076 -106.39520 3946 ft 4 kts 167°
2026-05-07 21:10 31.80102 -106.39527 3946 ft 4 kts 167°
2026-05-07 21:10 31.80124 -106.39533 3946 ft 4 kts 158°
2026-05-07 21:11 31.80144 -106.39551 3946 ft 4 kts 116°
2026-05-07 21:11 31.80150 -106.39574 3946 ft 0 kts 95°
2026-05-07 21:13 31.80149 -106.39568 3946 ft 5 kts 96°
2026-05-07 21:13 31.80146 -106.39517 3946 ft 7 kts 94°
2026-05-07 21:13 31.80143 -106.39464 3946 ft 6 kts 94°
2026-05-07 21:13 31.80141 -106.39411 3946 ft 6 kts 92°
2026-05-07 21:14 31.80139 -106.39360 3946 ft 6 kts 92°
2026-05-07 21:14 31.80137 -106.39310 3946 ft 6 kts 89°
2026-05-07 21:14 31.80155 -106.39269 3946 ft 6 kts 41°
2026-05-07 21:14 31.80186 -106.39237 3946 ft 6 kts 42°
2026-05-07 21:15 31.80216 -106.39205 3946 ft 6 kts 40°
2026-05-07 21:15 31.80245 -106.39172 3946 ft 6 kts 46°
2026-05-07 21:15 31.80269 -106.39136 3946 ft 6 kts 53°
2026-05-07 21:15 31.80292 -106.39098 3946 ft 7 kts 51°
2026-05-07 21:16 31.80363 -106.39022 3946 ft 16 kts 42°
2026-05-07 21:16 31.80452 -106.38951 3946 ft 15 kts 31°
2026-05-07 21:16 31.80533 -106.38877 3946 ft 15 kts 57°
2026-05-07 21:16 31.80594 -106.38786 3946 ft 14 kts 38°
2026-05-07 21:17 31.80679 -106.38735 3946 ft 13 kts 25°
2026-05-07 21:17 31.80766 -106.38716 3946 ft 13 kts 360°
2026-05-07 21:17 31.80836 -106.38658 3946 ft 13 kts 46°
2026-05-07 21:17 31.80927 -106.38532 3946 ft 26 kts 50°
2026-05-07 21:18 31.81041 -106.38374 3946 ft 24 kts 50°
2026-05-07 21:18 31.81145 -106.38229 3946 ft 23 kts 50°
2026-05-07 21:18 31.81246 -106.38087 3945 ft 22 kts 49°
2026-05-07 21:18 31.81344 -106.37950 3946 ft 22 kts 50°
2026-05-07 21:19 31.81439 -106.37817 3946 ft 21 kts 49°
2026-05-07 21:19 31.81532 -106.37688 3946 ft 20 kts 50°
2026-05-07 21:19 31.81621 -106.37564 3946 ft 20 kts 50°
2026-05-07 21:19 31.81708 -106.37443 3946 ft 19 kts 50°
2026-05-07 21:20 31.81792 -106.37325 3946 ft 18 kts 50°
2026-05-07 21:20 31.81884 -106.37198 3946 ft 21 kts 49°
2026-05-07 21:20 31.81978 -106.37069 3945 ft 20 kts 50°
2026-05-07 21:20 31.82070 -106.36944 3945 ft 19 kts 49°
2026-05-07 21:21 31.82143 -106.36912 3945 ft 12 kts 328°
2026-05-07 21:21 31.82207 -106.36971 3945 ft 12 kts 321°
2026-05-07 21:21 31.82261 -106.37029 3945 ft 9 kts 293°
2026-05-07 21:21 31.82234 -106.37091 3945 ft 9 kts 227°
2026-05-07 21:22 31.82153 -106.37199 3944 ft 45 kts 229°
2026-05-07 21:22 31.81796 -106.37700 3947 ft 115 kts 230°
2026-05-07 21:22 31.81142 -106.38614 3949 ft 174 kts 230°
2026-05-07 21:22 31.80281 -106.39827 4271 ft 206 kts 231°
2026-05-07 21:23 31.79397 -106.41231 4877 ft 219 kts 239°
2026-05-07 21:23 31.78715 -106.42787 5774 ft 207 kts 243°
2026-05-07 21:23 31.78057 -106.44342 6304 ft 226 kts 242°
2026-05-07 21:23 31.77297 -106.46092 6493 ft 253 kts 241°
2026-05-07 21:24 31.76491 -106.47999 6964 ft 266 kts 249°
2026-05-07 21:24 31.76289 -106.50222 7436 ft 286 kts 281°
2026-05-07 21:24 31.77116 -106.52333 8253 ft 292 kts 303°
2026-05-07 21:24 31.78271 -106.54315 9172 ft 295 kts 304°
2026-05-07 21:25 31.79453 -106.56308 10050 ft 299 kts 303°
2026-05-07 21:25 31.80615 -106.58414 10557 ft 318 kts 294°
2026-05-07 21:25 31.81237 -106.61002 10769 ft 341 kts 279°
2026-05-07 21:25 31.81645 -106.63815 10969 ft 364 kts 277°
2026-05-07 21:26 31.82050 -106.66847 11280 ft 381 kts 277°
2026-05-07 21:26 31.82464 -106.69947 11901 ft 386 kts 277°
2026-05-07 21:26 31.82889 -106.73063 12687 ft 386 kts 276°
2026-05-07 21:26 31.83324 -106.76180 13488 ft 387 kts 276°
2026-05-07 21:27 31.83763 -106.79280 14171 ft 389 kts 276°
2026-05-07 21:27 31.84215 -106.82435 14765 ft 392 kts 276°
2026-05-07 21:27 31.84672 -106.85614 15316 ft 396 kts 277°
2026-05-07 21:27 31.85135 -106.88826 15737 ft 400 kts 277°
2026-05-07 21:28 31.85605 -106.92080 16338 ft 403 kts 277°
2026-05-07 21:28 31.86075 -106.95335 16916 ft 406 kts 277°
2026-05-07 21:28 31.86545 -106.98603 17464 ft 410 kts 277°
2026-05-07 21:28 31.87023 -107.01924 17970 ft 414 kts 277°
2026-05-07 21:29 31.87506 -107.05292 18485 ft 417 kts 277°
2026-05-07 21:29 31.87985 -107.08641 18908 ft 421 kts 277°
2026-05-07 21:29 31.88473 -107.12059 19391 ft 424 kts 277°
2026-05-07 21:29 31.88963 -107.15494 19947 ft 424 kts 277°
2026-05-07 21:30 31.89451 -107.18920 20503 ft 425 kts 277°
2026-05-07 21:30 31.89940 -107.22359 21049 ft 426 kts 277°
2026-05-07 21:30 31.90422 -107.25764 21550 ft 428 kts 276°
2026-05-07 21:30 31.90912 -107.29231 22032 ft 430 kts 276°
2026-05-07 21:31 31.91404 -107.32715 22504 ft 431 kts 276°
2026-05-07 21:31 31.91729 -107.35027 22813 ft 432 kts 276°
2026-05-07 21:31 31.92222 -107.38532 23288 ft 434 kts 276°
2026-05-07 21:31 31.92716 -107.42052 23658 ft 437 kts 276°
2026-05-07 21:32 31.93213 -107.45612 23910 ft 442 kts 275°
2026-05-07 21:32 31.93714 -107.49200 24219 ft 445 kts 276°
2026-05-07 21:32 31.94216 -107.52800 24563 ft 446 kts 276°
2026-05-07 21:32 31.94714 -107.56376 24960 ft 447 kts 276°
2026-05-07 21:33 31.95219 -107.60004 25354 ft 447 kts 276°
2026-05-07 21:33 31.95723 -107.63634 25704 ft 449 kts 275°
2026-05-07 21:33 31.96219 -107.67226 26042 ft 450 kts 275°
2026-05-07 21:33 31.96723 -107.70879 26357 ft 451 kts 275°
2026-05-07 21:34 31.97229 -107.74549 26704 ft 453 kts 275°
2026-05-07 21:34 31.97733 -107.78223 26898 ft 457 kts 275°
2026-05-07 21:34 31.98234 -107.81889 27066 ft 460 kts 275°
2026-05-07 21:34 31.98744 -107.85610 27454 ft 458 kts 275°
2026-05-07 21:35 31.99253 -107.89330 27970 ft 454 kts 274°
2026-05-07 21:35 31.99753 -107.92983 28527 ft 450 kts 274°
2026-05-07 21:35 32.00242 -107.96571 29026 ft 447 kts 274°
2026-05-07 21:35 32.00734 -108.00197 29501 ft 445 kts 274°
2026-05-07 21:36 32.01222 -108.03808 29994 ft 443 kts 273°
2026-05-07 21:36 32.01700 -108.07346 30373 ft 441 kts 273°
2026-05-07 21:36 32.02181 -108.10924 30701 ft 441 kts 273°
2026-05-07 21:36 32.02662 -108.14511 31019 ft 441 kts 273°
2026-05-07 21:37 32.03142 -108.18096 31361 ft 440 kts 273°
2026-05-07 21:37 32.03612 -108.21609 31734 ft 439 kts 273°
2026-05-07 21:37 32.04086 -108.25160 32089 ft 438 kts 273°
2026-05-07 21:37 32.04558 -108.28706 32421 ft 438 kts 273°
2026-05-07 21:38 32.05030 -108.32257 32744 ft 437 kts 273°
2026-05-07 21:38 32.05500 -108.35806 33077 ft 437 kts 273°
2026-05-07 21:38 32.05969 -108.39349 33400 ft 436 kts 273°
2026-05-07 21:38 32.06436 -108.42882 33748 ft 436 kts 273°
2026-05-07 21:39 32.06896 -108.46381 33889 ft 439 kts 273°
2026-05-07 21:39 32.07365 -108.49962 33920 ft 442 kts 273°
2026-05-07 21:39 32.08304 -108.57126 33927 ft 439 kts 273°
2026-05-07 21:40 32.09228 -108.64194 33946 ft 437 kts 273°
2026-05-07 21:40 32.10149 -108.71287 33946 ft 436 kts 273°
2026-05-07 21:41 32.11062 -108.78352 33910 ft 435 kts 273°
2026-05-07 21:41 32.11969 -108.85414 33884 ft 437 kts 273°
2026-05-07 21:42 32.12882 -108.92542 33875 ft 440 kts 273°
2026-05-07 21:42 32.13790 -108.99665 33888 ft 442 kts 273°
2026-05-07 21:43 32.14701 -109.06849 33879 ft 445 kts 273°
2026-05-07 21:43 32.15616 -109.14084 33893 ft 446 kts 273°
2026-05-07 21:44 32.16532 -109.21365 33887 ft 448 kts 273°
2026-05-07 21:44 32.17442 -109.28630 33883 ft 450 kts 274°
2026-05-07 21:45 32.18756 -109.35938 33882 ft 457 kts 280°
2026-05-07 21:45 32.20399 -109.43196 33890 ft 461 kts 281°
2026-05-07 21:46 32.22043 -109.50564 33880 ft 465 kts 281°
2026-05-07 21:46 32.23633 -109.57972 33881 ft 468 kts 281°
2026-05-07 21:47 32.25212 -109.65464 33876 ft 469 kts 281°
2026-05-07 21:47 32.26782 -109.72952 33892 ft 470 kts 280°
2026-05-07 21:48 32.28343 -109.80419 33909 ft 470 kts 281°
2026-05-07 21:48 32.29912 -109.87939 33898 ft 472 kts 281°
2026-05-07 21:49 32.31477 -109.95458 33900 ft 472 kts 281°
2026-05-07 21:49 32.33042 -110.03010 33882 ft 472 kts 282°
2026-05-07 21:50 32.34605 -110.10572 33894 ft 473 kts 282°
2026-05-07 21:50 32.36158 -110.18110 33883 ft 475 kts 283°
2026-05-07 21:51 32.36947 -110.21952 33223 ft 483 kts 283°
2026-05-07 21:51 32.37738 -110.25809 32531 ft 480 kts 284°
2026-05-07 21:51 32.38526 -110.29653 31779 ft 480 kts 284°
2026-05-07 21:51 32.39313 -110.33501 30986 ft 481 kts 285°
2026-05-07 21:52 32.40098 -110.37349 30188 ft 482 kts 285°
2026-05-07 21:52 32.40876 -110.41165 29261 ft 483 kts 285°
2026-05-07 21:52 32.41666 -110.45042 28309 ft 484 kts 285°
2026-05-07 21:52 32.42453 -110.48916 27383 ft 484 kts 286°
2026-05-07 21:53 32.43241 -110.52800 26386 ft 487 kts 286°
2026-05-07 21:53 32.44026 -110.56680 25976 ft 476 kts 285°
2026-05-07 21:53 32.44784 -110.60440 25762 ft 463 kts 285°
2026-05-07 21:53 32.45522 -110.64102 25554 ft 449 kts 285°
2026-05-07 21:54 32.46231 -110.67619 25372 ft 440 kts 285°
2026-05-07 21:54 32.47044 -110.71090 25135 ft 433 kts 294°
2026-05-07 21:54 32.48526 -110.74139 24670 ft 424 kts 308°
2026-05-07 21:54 32.50234 -110.76969 24182 ft 421 kts 308°
2026-05-07 21:55 32.51930 -110.79809 23721 ft 419 kts 307°
2026-05-07 21:55 32.53584 -110.82649 23172 ft 418 kts 307°
2026-05-07 21:55 32.55215 -110.85498 22652 ft 415 kts 307°
2026-05-07 21:55 32.56822 -110.88325 22160 ft 411 kts 307°
2026-05-07 21:56 32.58399 -110.91094 21669 ft 408 kts 307°
2026-05-07 21:56 32.59982 -110.93869 21194 ft 404 kts 307°
2026-05-07 21:56 32.61556 -110.96626 20714 ft 401 kts 306°
2026-05-07 21:56 32.63116 -110.99362 20259 ft 398 kts 306°
2026-05-07 21:57 32.64665 -111.02080 19801 ft 395 kts 306°
2026-05-07 21:57 32.66179 -111.04738 19333 ft 392 kts 307°
2026-05-07 21:57 32.67700 -111.07413 18907 ft 389 kts 307°
2026-05-07 21:57 32.69210 -111.10069 18459 ft 386 kts 306°
2026-05-07 21:58 32.70711 -111.12711 17962 ft 385 kts 306°
2026-05-07 21:58 32.72185 -111.15307 17479 ft 382 kts 307°
2026-05-07 21:58 32.73656 -111.17901 17256 ft 372 kts 306°
2026-05-07 21:58 32.75078 -111.20413 17024 ft 363 kts 306°
2026-05-07 21:59 32.76480 -111.22888 16673 ft 358 kts 306°
2026-05-07 21:59 32.77868 -111.25340 16268 ft 355 kts 306°
2026-05-07 21:59 32.79239 -111.27765 15870 ft 353 kts 306°
2026-05-07 21:59 32.80591 -111.30157 15473 ft 351 kts 306°
2026-05-07 22:00 32.81946 -111.32557 15073 ft 349 kts 306°
2026-05-07 22:00 32.83299 -111.34955 14677 ft 347 kts 305°
2026-05-07 22:00 32.84627 -111.37310 14275 ft 345 kts 305°
2026-05-07 22:00 32.85968 -111.39690 13880 ft 343 kts 305°
2026-05-07 22:01 32.87282 -111.42022 13464 ft 342 kts 305°
2026-05-07 22:01 32.88593 -111.44352 13252 ft 333 kts 305°
2026-05-07 22:01 32.89867 -111.46618 13078 ft 324 kts 305°
2026-05-07 22:01 32.91275 -111.48651 12890 ft 314 kts 323°
2026-05-07 22:02 32.93143 -111.49923 12548 ft 308 kts 339°
2026-05-07 22:02 32.95100 -111.50873 12187 ft 307 kts 340°
2026-05-07 22:02 32.97088 -111.51806 11822 ft 306 kts 340°
2026-05-07 22:02 32.99070 -111.52742 11458 ft 305 kts 340°
2026-05-07 22:03 33.01044 -111.53688 11093 ft 305 kts 340°
2026-05-07 22:03 33.03011 -111.54641 10734 ft 304 kts 339°
2026-05-07 22:03 33.04952 -111.55585 10370 ft 304 kts 339°
2026-05-07 22:03 33.06918 -111.56545 10041 ft 303 kts 339°
2026-05-07 22:04 33.08817 -111.57479 9956 ft 292 kts 339°
2026-05-07 22:04 33.10648 -111.58385 9858 ft 279 kts 339°
2026-05-07 22:04 33.12458 -111.59280 9389 ft 277 kts 339°
2026-05-07 22:04 33.14213 -111.60147 9092 ft 269 kts 339°
2026-05-07 22:05 33.15934 -111.60998 8879 ft 265 kts 339°
2026-05-07 22:05 33.17610 -111.61826 8660 ft 262 kts 339°
2026-05-07 22:05 33.19290 -111.62657 8456 ft 258 kts 339°
2026-05-07 22:05 33.20947 -111.63477 8240 ft 255 kts 339°
2026-05-07 22:06 33.22577 -111.64283 8033 ft 252 kts 338°
2026-05-07 22:06 33.24155 -111.65141 7782 ft 251 kts 335°
2026-05-07 22:06 33.25731 -111.66064 7517 ft 251 kts 334°
2026-05-07 22:06 33.27297 -111.66989 7251 ft 250 kts 334°
2026-05-07 22:07 33.28843 -111.67901 6997 ft 250 kts 334°
2026-05-07 22:07 33.30409 -111.68822 6747 ft 250 kts 333°
2026-05-07 22:07 33.31969 -111.69737 6471 ft 250 kts 333°
2026-05-07 22:07 33.33529 -111.70651 6202 ft 250 kts 333°
2026-05-07 22:08 33.35092 -111.71565 5925 ft 250 kts 332°
2026-05-07 22:08 33.36626 -111.72462 5652 ft 247 kts 333°
2026-05-07 22:08 33.38166 -111.73363 5361 ft 246 kts 332°
2026-05-07 22:08 33.39695 -111.74266 5106 ft 244 kts 329°
2026-05-07 22:09 33.40915 -111.75624 4857 ft 241 kts 303°
2026-05-07 22:09 33.41833 -111.77289 4633 ft 237 kts 302°
2026-05-07 22:09 33.42722 -111.78891 4425 ft 230 kts 302°
2026-05-07 22:09 33.43594 -111.80468 4154 ft 224 kts 300°
2026-05-07 22:10 33.44035 -111.82191 3932 ft 214 kts 272°
2026-05-07 22:10 33.44062 -111.83956 3651 ft 209 kts 271°
2026-05-07 22:10 33.44077 -111.85683 3377 ft 205 kts 270°
2026-05-07 22:10 33.44077 -111.87346 3101 ft 197 kts 269°
2026-05-07 22:11 33.44075 -111.88946 2844 ft 187 kts 269°
2026-05-07 22:11 33.44074 -111.90463 2608 ft 176 kts 269°
2026-05-07 22:11 33.44074 -111.91874 2419 ft 161 kts 269°
2026-05-07 22:11 33.44074 -111.93176 2183 ft 156 kts 270°
2026-05-07 22:12 33.44074 -111.94478 1983 ft 157 kts 269°
2026-05-07 22:12 33.44074 -111.95787 1758 ft 157 kts 269°
2026-05-07 22:12 33.44074 -111.97103 1543 ft 157 kts 269°
2026-05-07 22:12 33.44075 -111.98412 1333 ft 158 kts 269°
2026-05-07 22:13 33.44076 -111.99717 1153 ft 158 kts 268°
2026-05-07 22:13 33.44076 -112.01038 1118 ft 145 kts 274°
2026-05-07 22:13 33.44085 -112.02036 1122 ft 98 kts 270°
2026-05-07 22:13 33.44086 -112.02471 1121 ft 30 kts 270°
2026-05-07 22:14 33.44085 -112.02704 1123 ft 26 kts 270°
2026-05-07 22:14 33.44040 -112.02845 1117 ft 18 kts 187°
2026-05-07 22:14 33.43977 -112.02740 1121 ft 17 kts 94°
2026-05-07 22:14 33.43983 -112.02600 1123 ft 17 kts 95°
2026-05-07 22:15 33.43976 -112.02466 1117 ft 16 kts 89°
2026-05-07 22:15 33.43975 -112.02336 1117 ft 15 kts 91°
2026-05-07 22:15 33.43975 -112.02210 1120 ft 15 kts 90°
2026-05-07 22:15 33.43975 -112.02089 1117 ft 14 kts 90°
2026-05-07 22:16 33.43975 -112.01976 1117 ft 13 kts 90°
2026-05-07 22:16 33.43975 -112.01866 1121 ft 13 kts 90°
2026-05-07 22:16 33.43974 -112.01759 1124 ft 13 kts 90°
2026-05-07 22:16 33.43974 -112.01655 1119 ft 12 kts 90°
2026-05-07 22:17 33.43974 -112.01514 1120 ft 23 kts 90°
2026-05-07 22:17 33.43975 -112.01323 1120 ft 23 kts 90°
2026-05-07 22:17 33.43975 -112.01137 1118 ft 22 kts 90°
2026-05-07 22:17 33.43976 -112.00956 1121 ft 21 kts 88°
2026-05-07 22:18 33.43973 -112.00782 1118 ft 21 kts 91°
2026-05-07 22:18 33.43974 -112.00446 1119 ft 20 kts 90°
2026-05-07 22:18 33.43974 -112.00286 1123 ft 19 kts 89°
2026-05-07 22:19 33.43974 -112.00183 1118 ft 18 kts 90°
2026-05-07 22:19 33.43930 -112.00048 1118 ft 13 kts 167°
2026-05-07 22:19 33.43873 -112.00064 1123 ft 12 kts 205°
2026-05-07 22:19 33.43824 -112.00083 1119 ft 6 kts 186°
2026-05-07 22:20 33.43786 -112.00073 1120 ft 6 kts 148°
2026-05-07 22:20 33.43767 -112.00056 1117 ft 0 kts 133°
2026-05-07 22:20 33.43764 -112.00050 1115 ft 2 kts 125°
2026-05-07 22:20 33.43758 -112.00024 1123 ft 4 kts 95°
2026-05-07 22:21 33.43758 -111.99993 1123 ft 4 kts 89°
2026-05-07 22:21 33.43758 -111.99976 1123 ft 0 kts 89°